Fullerton, CA

11:11 PM PST on January 19, 2017 (GMT -0800)
Fullerton Municipal

Weather History for KFUL - December, 2012

Change the Weather History Date:

Sunday, December 2, 2012

  Actual Average Record
Temperature  
Mean Temperature 66 °F 57 °F  
Max Temperature 69 °F 68 °F 82 °F (2015)
Min Temperature 63 °F 46 °F 34 °F (2004)
Degree Days  
Heating Degree Days 0 8  
Month to date heating degree days 0 16  
Since 1 July heating degree days 58 180  
Cooling Degree Days 1 0  
Month to date cooling degree days 2 0  
Year to date cooling degree days 2040 1251  
Growing Degree Days 15 (Base 50)    
Moisture  
Dew Point 59 °F    
Average Humidity 76    
Maximum Humidity 84    
Minimum Humidity 68    
Precipitation  
Precipitation 0.02 in 0.04 in 0.85 in (2014)
Month to date precipitation 0.09 0.08  
Year to date precipitation 4.63 11.91  
Since 1 July precipitation 1.10  
Snow  
Snow 0.00 in - - ()
Month to date snowfall 0.0  
Year to date snowfall 0.0  
Snow Depth 0.00 in    
Sea Level Pressure  
Sea Level Pressure 30.10 in    
Wind  
Wind Speed 0 mph (South)    
Max Wind Speed 9 mph    
Max Gust Speed 13 mph    
Visibility 6 miles    
Events Rain    
T = Trace of Precipitation, MM = Missing Value Source: NWS Daily Summary

Daily Weather History Graph

Daily Weather History Graph

Search for Another Location

Airport or City:

Trip Planner

Search our weather history database for the weather conditions in past years. The results will help you decide how hot, cold, wet, or windy it might be!

Date:

Astronomy

Dec. 02, 2012 Rise Set
Actual Time 6:40 AM PST 4:42 PM PST
Civil Twilight 6:12 AM PST 5:10 PM PST
Nautical Twilight 5:41 AM PST 5:41 PM PST
Astronomical Twilight 5:11 AM PST 6:11 PM PST
Moon 8:30 PM PST (12/2) 9:36 AM PST (12/2)
Length of Visible Light 10h 57m
Length of Day
10h 02m
Waning Gibbous, 85% of the Moon is Illuminated
Dec 2
Waning Gibbous
Dec 6
Last Quarter
Dec 13
New
Dec 19
First Quarter
Dec 28
Full

Hourly Weather History & Observations

Time (PST) Temp. Dew Point Humidity Pressure Visibility Wind Dir Wind Speed Gust Speed Precip Events Conditions
12:00 AM 64.4 °F 60.8 °F 88% 30.11 in 6.0 mi Calm Calm - 0.00 in   Overcast
12:53 AM 64.0 °F 59.0 °F 84% 30.10 in 10.0 mi Calm Calm - 0.00 in   Overcast
1:53 AM 64.0 °F 59.0 °F 84% 30.10 in 10.0 mi Calm Calm - N/A   Overcast
2:53 AM 64.0 °F 59.0 °F 84% 30.10 in 10.0 mi Calm Calm - N/A   Overcast
3:53 AM 64.0 °F 59.0 °F 84% 30.09 in 10.0 mi Calm Calm - N/A   Overcast
4:53 AM 64.0 °F 57.9 °F 80% 30.09 in 10.0 mi Calm Calm - N/A   Overcast
5:53 AM 63.0 °F 57.9 °F 84% 30.10 in 10.0 mi Calm Calm - N/A   Overcast
6:53 AM 63.0 °F 57.9 °F 84% 30.12 in 10.0 mi Calm Calm - N/A   Overcast
7:53 AM 64.0 °F 59.0 °F 84% 30.12 in 10.0 mi Calm Calm - N/A   Overcast
8:53 AM 64.9 °F 59.0 °F 81% 30.14 in 10.0 mi Calm Calm - N/A   Overcast
9:04 AM 64.4 °F 57.2 °F 77% 30.14 in 10.0 mi Calm Calm - N/A   Overcast
9:11 AM 64.4 °F 57.2 °F 77% 30.14 in 10.0 mi Calm Calm - N/A   Overcast
9:24 AM 64.4 °F 57.2 °F 77% 30.14 in 10.0 mi Calm Calm - N/A   Overcast
9:53 AM 66.0 °F 57.9 °F 75% 30.14 in 10.0 mi Calm Calm - N/A   Overcast
10:04 AM 66.2 °F 57.2 °F 73% 30.14 in 10.0 mi South 3.5 mph - N/A   Overcast
10:19 AM 66.2 °F 57.2 °F 73% 30.14 in 10.0 mi SSE 3.5 mph - N/A   Overcast
10:35 AM 66.2 °F 57.2 °F 73% 30.14 in 10.0 mi South 3.5 mph - N/A   Overcast
10:53 AM 66.9 °F 57.9 °F 73% 30.13 in 10.0 mi Calm Calm - N/A   Overcast
11:34 AM 68.0 °F 57.2 °F 68% 30.12 in 10.0 mi Calm Calm - N/A   Overcast
11:53 AM 68.0 °F 57.0 °F 68% 30.11 in 10.0 mi SW 4.6 mph - N/A   Overcast
12:12 PM 68.0 °F 57.2 °F 68% 30.11 in 10.0 mi SSW 3.5 mph - N/A   Overcast
12:53 PM 66.0 °F 57.9 °F 75% 30.09 in 7.0 mi SW 6.9 mph - 0.00 in Rain Light Rain
1:46 PM 66.2 °F 57.2 °F 73% 30.08 in 10.0 mi SSW 6.9 mph - N/A   Overcast
1:53 PM 66.0 °F 57.9 °F 75% 30.07 in 9.0 mi SW 5.8 mph - N/A   Overcast
2:19 PM 64.4 °F 59.0 °F 83% 30.07 in 4.0 mi SSW 8.1 mph - N/A   Haze
2:33 PM 64.4 °F 59.0 °F 83% 30.06 in 5.0 mi SSW 6.9 mph - N/A   Haze
2:40 PM 64.4 °F 59.0 °F 83% 30.07 in 6.0 mi SSW 6.9 mph - N/A   Haze
2:53 PM 64.0 °F 59.0 °F 84% 30.07 in 3.0 mi Variable 4.6 mph - 0.00 in Rain Light Rain
3:18 PM 64.4 °F 59.0 °F 83% 30.08 in 2.0 mi SSW 6.9 mph - 0.01 in Rain Light Rain
3:31 PM 62.6 °F 59.0 °F 88% 30.09 in 1.8 mi SW 5.8 mph - 0.02 in Rain Light Rain
3:38 PM 62.6 °F 59.0 °F 88% 30.09 in 2.5 mi SSW 8.1 mph - 0.02 in Rain Light Rain
3:50 PM 62.6 °F 59.0 °F 88% 30.09 in 3.0 mi SSW 5.8 mph - 0.02 in Rain Light Rain
3:53 PM 63.0 °F 59.0 °F 87% 30.09 in 5.0 mi SSW 5.8 mph - 0.02 in Rain Light Rain
4:50 PM 62.6 °F 59.0 °F 88% 30.09 in 10.0 mi South 4.6 mph - 0.00 in   Overcast
4:53 PM 64.0 °F 59.0 °F 84% 30.09 in 10.0 mi South 4.6 mph - 0.00 in   Overcast
5:07 PM 64.4 °F 59.0 °F 83% 30.09 in 10.0 mi South 4.6 mph - N/A   Overcast
5:21 PM 64.4 °F 59.0 °F 83% 30.09 in 10.0 mi Calm Calm - N/A   Overcast
5:30 PM 64.4 °F 59.0 °F 83% 30.09 in 10.0 mi Calm Calm - N/A   Overcast
5:53 PM 64.0 °F 59.0 °F 84% 30.09 in 10.0 mi South 3.5 mph - N/A   Overcast
6:16 PM 64.4 °F 59.0 °F 83% 30.09 in 9.0 mi SSE 3.5 mph - N/A   Overcast
6:33 PM 64.4 °F 59.0 °F 83% 30.09 in 8.0 mi Calm Calm - 0.00 in   Overcast
6:53 PM 64.0 °F 60.1 °F 87% 30.09 in 8.0 mi Calm Calm - 0.00 in   Overcast
7:18 PM 64.4 °F 60.8 °F 88% 30.10 in 7.0 mi SSE 3.5 mph - N/A   Overcast
7:53 PM 64.0 °F 60.1 °F 87% 30.11 in 6.0 mi Calm Calm - 0.01 in   Overcast
8:10 PM 64.4 °F 60.8 °F 88% 30.11 in 2.5 mi SSE 3.5 mph - 0.00 in Rain Light Rain
8:23 PM 64.4 °F 60.8 °F 88% 30.10 in 2.5 mi Calm Calm - 0.00 in Rain Light Rain
8:32 PM 64.4 °F 60.8 °F 88% 30.10 in 4.0 mi South 3.5 mph - 0.01 in Rain Light Rain
8:51 PM 66.2 °F 60.8 °F 83% 30.10 in 5.0 mi South 3.5 mph - 0.01 in Rain Light Rain
8:53 PM 64.0 °F 60.1 °F 87% 30.09 in 4.0 mi Calm Calm - 0.01 in Rain Light Rain
9:14 PM 64.4 °F 60.8 °F 88% 30.10 in 3.0 mi Calm Calm - 0.01 in Rain Light Rain
9:23 PM 64.4 °F 60.8 °F 88% 30.09 in 1.8 mi SE 3.5 mph - 0.05 in Rain Heavy Rain
9:35 PM 64.4 °F 60.8 °F 88% 30.10 in 3.0 mi Variable 3.5 mph - 0.06 in Rain Light Rain
9:40 PM 64.4 °F 60.8 °F 88% 30.11 in 2.5 mi Calm Calm - 0.08 in Rain Light Rain
9:51 PM 64.4 °F 60.8 °F 88% 30.11 in 1.8 mi South 3.5 mph - 0.11 in Rain Heavy Rain
9:53 PM 64.0 °F 61.0 °F 90% 30.10 in 1.8 mi SSW 4.6 mph - 0.11 in Rain Rain
10:04 PM 64.4 °F 60.8 °F 88% 30.11 in 2.5 mi Variable 3.5 mph - 0.01 in Rain Light Rain
10:07 PM 64.4 °F 60.8 °F 88% 30.11 in 3.0 mi Variable 3.5 mph - 0.01 in Rain Light Rain
10:12 PM 64.4 °F 60.8 °F 88% 30.11 in 3.0 mi WSW 3.5 mph - 0.02 in Rain Light Rain
10:16 PM 64.4 °F 60.8 °F 88% 30.11 in 2.5 mi Calm Calm - 0.02 in Rain Light Rain
10:23 PM 64.4 °F 60.8 °F 88% 30.11 in 3.0 mi Calm Calm - 0.02 in Rain Light Rain
10:31 PM 64.4 °F 60.8 °F 88% 30.11 in 2.5 mi Calm Calm - 0.02 in Rain Light Rain
10:44 PM 64.4 °F 60.8 °F 88% 30.11 in 3.0 mi Calm Calm - 0.03 in Rain Light Rain
10:53 PM 64.0 °F 60.1 °F 87% 30.11 in 6.0 mi Calm Calm - 0.03 in   Overcast
11:18 PM 64.4 °F 60.8 °F 88% 30.10 in 2.5 mi SSE 3.5 mph - 0.02 in Rain Rain
11:42 PM 64.4 °F 60.8 °F 88% 30.11 in 2.0 mi Calm Calm - 0.04 in Rain Light Rain
11:53 PM 64.0 °F 60.1 °F 87% 30.10 in 1.8 mi Calm Calm - 0.05 in Rain Light Rain